When you browse on this site, cookies collect data to enhance your experience and personalize the content and advertising you see.
Visit our Privacy Policy to learn more. By continuing to use the site, you agree to this use of cookies and data.
  • In Sweden
  • List of Countries
  • For 7 days
  • Water Temperature
  • Weather Map
  • Weather Widgets
  • user-avatar
    Login

    Hourly Weather Darwen

    Today, 4 June, Thursday

    Time Temperature Precipitation Wind Pressure Humidity
    00:00 +8°C° 0 mm 3 mps 739 mmHg 82%
    01:00 +7°C° 0 mm 2 mps 738 mmHg 83%
    02:00 +7°C° 0 mm 2 mps 738 mmHg 84%
    03:00 +6°C° 0 mm 2 mps 737 mmHg 85%
    04:00 +6°C° 0 mm 2 mps 737 mmHg 82%
    05:00 +7°C° 0 mm 2 mps 737 mmHg 79%
    06:00 +7°C° 0 mm 2 mps 737 mmHg 76%
    07:00 +9°C° 0 mm 2 mps 737 mmHg 70%
    08:00 +10°C° 0 mm 3 mps 736 mmHg 65%
    09:00 +11°C° 0 mm 3 mps 736 mmHg 59%
    10:00 +11°C° 0 mm 3 mps 736 mmHg 59%
    11:00 +12°C° 0 mm 3 mps 735 mmHg 60%
    12:00 +12°C° 0 mm 4 mps 735 mmHg 61%
    13:00 +12°C° 0 mm 4 mps 734 mmHg 62%
    14:00 +12°C° 0 mm 5 mps 734 mmHg 63%
    15:00 +12°C° 0 mm 5 mps 733 mmHg 64%
    16:00 +12°C° 0.1 mm 5 mps 733 mmHg 69%
    17:00 +11°C° 0.1 mm 4 mps 732 mmHg 74%
    18:00 +10°C° 0.1 mm 4 mps 732 mmHg 79%
    19:00 +10°C° 0.3 mm 4 mps 732 mmHg 83%
    20:00 +9°C° 0.3 mm 3 mps 731 mmHg 86%
    21:00 +9°C° 0.3 mm 3 mps 731 mmHg 90%
    22:00 +8°C° 0.2 mm 4 mps 731 mmHg 89%
    23:00 +8°C° 0.2 mm 4 mps 730 mmHg 89%

    Tomorrow, 5 June, Friday

    Time Temperature Precipitation Wind Pressure Humidity
    00:00 +7°C° 0.2 mm 4 mps 730 mmHg 88%
    01:00 +7°C° 0.2 mm 4 mps 730 mmHg 89%
    02:00 +7°C° 0.2 mm 4 mps 730 mmHg 90%
    03:00 +7°C° 0.2 mm 3 mps 729 mmHg 90%
    04:00 +7°C° 0.1 mm 3 mps 729 mmHg 87%
    05:00 +8°C° 0.1 mm 3 mps 729 mmHg 84%
    06:00 +8°C° 0.1 mm 2 mps 729 mmHg 81%
    07:00 +8°C° 0.2 mm 3 mps 729 mmHg 79%
    08:00 +7°C° 0.2 mm 4 mps 729 mmHg 77%
    09:00 +8°C° 0.2 mm 5 mps 729 mmHg 75%
    10:00 +8°C° 0.2 mm 6 mps 729 mmHg 68%
    11:00 +9°C° 0.2 mm 7 mps 729 mmHg 62%
    12:00 +10°C° 0.2 mm 8 mps 729 mmHg 56%
    13:00 +10°C° 0.3 mm 9 mps 728 mmHg 57%
    14:00 +9°C° 0.3 mm 10 mps 728 mmHg 58%
    15:00 +9°C° 0.3 mm 10 mps 728 mmHg 60%
    16:00 +9°C° 0.1 mm 10 mps 728 mmHg 60%
    17:00 +8°C° 0.1 mm 11 mps 728 mmHg 60%
    18:00 +8°C° 0.1 mm 11 mps 728 mmHg 61%
    19:00 +7°C° 0 mm 10 mps 728 mmHg 62%
    20:00 +6°C° 0 mm 10 mps 728 mmHg 64%
    21:00 +6°C° 0 mm 10 mps 728 mmHg 66%
    22:00 +6°C° 0.2 mm 10 mps 728 mmHg 72%
    23:00 +5°C° 0.2 mm 10 mps 727 mmHg 78%

    Day after tomorrow, 6 June, Saturday

    Time Temperature Precipitation Wind Pressure Humidity
    00:00 +4°C° 0.2 mm 11 mps 727 mmHg 85%
    01:00 +4°C° 1 mm 11 mps 726 mmHg 86%
    02:00 +4°C° 1 mm 11 mps 726 mmHg 88%
    03:00 +6°C° 1 mm 11 mps 726 mmHg 90%
    04:00 +6°C° 1.1 mm 10 mps 725 mmHg 90%
    05:00 +6°C° 1.1 mm 10 mps 725 mmHg 90%
    06:00 +7°C° 1.1 mm 9 mps 725 mmHg 90%
    07:00 +7°C° 0.5 mm 9 mps 725 mmHg 86%
    08:00 +9°C° 0.5 mm 8 mps 725 mmHg 82%
    09:00 +10°C° 0.5 mm 8 mps 725 mmHg 77%
    10:00 +10°C° 0.3 mm 8 mps 725 mmHg 74%
    11:00 +11°C° 0.3 mm 9 mps 725 mmHg 71%
    12:00 +12°C° 0.3 mm 9 mps 725 mmHg 68%
    13:00 +11°C° 0.1 mm 9 mps 726 mmHg 69%
    14:00 +11°C° 0.1 mm 9 mps 726 mmHg 69%
    15:00 +11°C° 0.1 mm 9 mps 726 mmHg 69%
    16:00 +11°C° 0.4 mm 8 mps 727 mmHg 72%
    17:00 +11°C° 0.4 mm 7 mps 728 mmHg 76%
    18:00 +11°C° 0.4 mm 6 mps 728 mmHg 79%
    19:00 +10°C° 0.3 mm 5 mps 729 mmHg 81%
    20:00 +10°C° 0.3 mm 4 mps 730 mmHg 83%
    21:00 +9°C° 0.3 mm 3 mps 731 mmHg 85%
    22:00 +9°C° 0 mm 3 mps 731 mmHg 86%
    23:00 +9°C° 0 mm 3 mps 732 mmHg 86%

    7 June, Sunday

    Time Temperature Precipitation Wind Pressure Humidity
    00:00 +9°C° 0 mm 3 mps 732 mmHg 86%
    01:00 +8°C° 0 mm 2 mps 733 mmHg 87%
    02:00 +8°C° 0 mm 2 mps 733 mmHg 88%
    03:00 +8°C° 0 mm 1 mps 733 mmHg 89%
    04:00 +8°C° 0 mm 2 mps 734 mmHg 89%
    05:00 +9°C° 0 mm 3 mps 734 mmHg 90%
    06:00 +10°C° 0 mm 4 mps 734 mmHg 90%
    07:00 +10°C° 0 mm 5 mps 735 mmHg 85%
    08:00 +12°C° 0 mm 5 mps 735 mmHg 80%
    09:00 +13°C° 0 mm 6 mps 736 mmHg 75%
    10:00 +13°C° 0.3 mm 6 mps 736 mmHg 77%
    11:00 +13°C° 0.3 mm 5 mps 736 mmHg 78%
    12:00 +13°C° 0.3 mm 5 mps 737 mmHg 80%
    13:00 +13°C° 0.4 mm 4 mps 737 mmHg 81%
    14:00 +13°C° 0.4 mm 4 mps 737 mmHg 81%
    15:00 +13°C° 0.4 mm 3 mps 738 mmHg 82%
    16:00 +12°C° 0.3 mm 3 mps 738 mmHg 83%
    17:00 +12°C° 0.3 mm 3 mps 739 mmHg 83%
    18:00 +13°C° 0.3 mm 2 mps 739 mmHg 83%
    19:00 +12°C° 0 mm 2 mps 740 mmHg 84%
    20:00 +10°C° 0 mm 2 mps 741 mmHg 84%
    21:00 +10°C° 0 mm 3 mps 741 mmHg 85%
    22:00 +9°C° 0 mm 2 mps 741 mmHg 86%
    23:00 +8°C° 0 mm 2 mps 742 mmHg 86%

    8 June, Monday

    Time Temperature Precipitation Wind Pressure Humidity
    00:00 +7°C° 0 mm 2 mps 742 mmHg 87%
    01:00 +7°C° 0 mm 2 mps 742 mmHg 87%
    02:00 +7°C° 0 mm 2 mps 743 mmHg 87%
    03:00 +7°C° 0 mm 2 mps 743 mmHg 87%
    04:00 +7°C° 0 mm 2 mps 743 mmHg 85%
    05:00 +8°C° 0 mm 2 mps 744 mmHg 84%
    06:00 +10°C° 0 mm 1 mps 744 mmHg 82%
    07:00 +9°C° 0 mm 2 mps 744 mmHg 77%
    08:00 +10°C° 0 mm 3 mps 745 mmHg 71%
    09:00 +11°C° 0 mm 3 mps 745 mmHg 66%
    10:00 +12°C° 0 mm 3 mps 745 mmHg 63%
    11:00 +13°C° 0 mm 4 mps 745 mmHg 59%
    12:00 +13°C° 0 mm 4 mps 745 mmHg 56%
    13:00 +13°C° 0 mm 4 mps 745 mmHg 57%
    14:00 +13°C° 0 mm 3 mps 746 mmHg 57%
    15:00 +13°C° 0 mm 3 mps 746 mmHg 58%
    16:00 +13°C° 0 mm 3 mps 746 mmHg 60%
    17:00 +12°C° 0 mm 3 mps 746 mmHg 62%
    18:00 +13°C° 0 mm 2 mps 746 mmHg 64%
    19:00 +12°C° 0 mm 2 mps 746 mmHg 67%
    20:00 +10°C° 0 mm 2 mps 746 mmHg 69%
    21:00 +9°C° 0 mm 2 mps 747 mmHg 71%
    22:00 +8°C° 0 mm 2 mps 747 mmHg 73%
    23:00 +7°C° 0 mm 2 mps 747 mmHg 75%

    9 June, Tuesday

    Time Temperature Precipitation Wind Pressure Humidity
    00:00 +6°C° 0 mm 2 mps 747 mmHg 77%
    01:00 +7°C° 0 mm 1 mps 747 mmHg 75%
    02:00 +8°C° 0 mm 1 mps 747 mmHg 73%
    03:00 +8°C° 0 mm 1 mps 747 mmHg 71%
    04:00 +8°C° 0 mm 1 mps 747 mmHg 71%
    05:00 +9°C° 0 mm 1 mps 747 mmHg 70%
    06:00 +9°C° 0 mm 1 mps 747 mmHg 70%
    07:00 +10°C° 0 mm 1 mps 747 mmHg 68%
    08:00 +11°C° 0 mm 1 mps 747 mmHg 67%
    09:00 +12°C° 0 mm 1 mps 747 mmHg 66%
    10:00 +12°C° 0 mm 1 mps 747 mmHg 66%
    11:00 +13°C° 0 mm 2 mps 747 mmHg 66%
    12:00 +12°C° 0 mm 3 mps 747 mmHg 67%
    13:00 +13°C° 0 mm 3 mps 747 mmHg 66%
    14:00 +13°C° 0 mm 3 mps 747 mmHg 66%
    15:00 +13°C° 0 mm 4 mps 746 mmHg 65%
    16:00 +13°C° 0 mm 4 mps 746 mmHg 67%
    17:00 +12°C° 0 mm 4 mps 746 mmHg 70%
    18:00 +11°C° 0 mm 4 mps 746 mmHg 72%
    19:00 +11°C° 0 mm 4 mps 746 mmHg 75%
    20:00 +10°C° 0 mm 4 mps 746 mmHg 77%
    21:00 +9°C° 0 mm 3 mps 746 mmHg 79%
    22:00 +9°C° 0 mm 3 mps 745 mmHg 80%
    23:00 +9°C° 0 mm 3 mps 745 mmHg 80%
    Show more